M I D A S
Marine Information and Data Acquisition System
Tripno 2172 of the Zeeleeuw from 2011-08-26 05:31:22 to 2011-08-26 13:25:08
Back to CruiseResearch ActivitiesStationsMapUnderway DataData graphs

EquipmentUnitsComments
TimeDGPSUTC
LatitudeDGPSDM.mWGS84
LongitudeDGPSDM.mWGS84
SpeedMeteo Stationm/sRelative wind speed
DirectionMeteo StationdegRelative wind direction
TemperatureMeteo Stationdeg CelciusAir temperature
PressureMeteo StationPaAtmospheric pressure
HumidityMeteo Station%Relative humidity
Missing or incorrect values are displayed as -999
Metereological data collected by the RV Zeeleeuw from 2011-08-26 05:18:30 to 2011-08-26 13:36:39
Time Latitude Longitude Speed Direction Temperature Pressure Humidity
2011-08-26 05:19 51°13.635 2°56.018 6.5 23 17.2 100110 48
2011-08-26 05:20 51°13.635 2°56.018 7.3 32 17.2 100100 49
2011-08-26 05:21 51°13.634 2°56.018 7 320 17.2 100100 50
2011-08-26 05:22 51°13.646 2°55.962 3.3 320 17.2 100100 49
2011-08-26 05:23 51°13.67 2°55.845 6 236 17.2 100100 46
2011-08-26 05:24 51°13.718 2°55.748 4.3 23 17.2 100090 49
2011-08-26 05:25 51°13.789 2°55.679 3.3 260 17.2 100100 48
2011-08-26 05:26 51°13.865 2°55.636 3.2 32 17.2 100100 49
2011-08-26 05:27 51°13.93 2°55.626 4 270 17.2 100100 49
2011-08-26 05:28 51°13.961 2°55.638 5.7 38 17.2 100090 49
2011-08-26 05:29 51°13.968 2°55.585 3.2 34 17.2 100100 49
2011-08-26 05:30 51°14.041 2°55.505 2.8 10 17.2 100090 48
2011-08-26 05:31 51°14.176 2°55.378 2.5 8 17.2 100090 48
2011-08-26 05:32 51°14.326 2°55.232 5.4 7 17.2 100090 49
2011-08-26 05:33 51°14.482 2°55.055 5.3 9 17.2 100080 48
2011-08-26 05:34 51°14.628 2°54.821 6.7 20 17.2 100080 48
2011-08-26 05:35 51°14.8 2°54.622 7.1 14 17.3 100080 49
2011-08-26 05:36 51°14.979 2°54.445 4.7 15 17.3 100080 48
2011-08-26 05:37 51°15.13 2°54.213 4.4 24 17.4 100090 50
2011-08-26 05:38 51°15.287 2°53.998 4.9 18 17.4 100090 48
2011-08-26 05:39 51°15.445 2°53.782 7.2 12 17.5 100090 47
2011-08-26 05:40 51°15.619 2°53.596 6.2 13 17.5 100100 49
2011-08-26 05:41 51°15.787 2°53.401 7.4 13 17.6 100090 49
2011-08-26 05:42 51°15.974 2°53.26 5.7 6 17.6 100090 49
2011-08-26 05:43 51°16.163 2°53.135 7.2 11 17.6 100090 48
2011-08-26 05:44 51°16.349 2°52.994 6.2 7 17.6 100080 48
2011-08-26 05:45 51°16.54 2°52.881 8 6 17.7 100080 49
2011-08-26 05:46 51°16.728 2°52.759 8.9 11 17.7 100080 49
2011-08-26 05:47 51°16.914 2°52.646 8.3 6 17.7 100080 49
2011-08-26 05:48 51°17.103 2°52.545 5.3 4 17.7 100080 49
2011-08-26 05:49 51°17.296 2°52.493 7.2 3 17.7 100070 48
2011-08-26 05:50 51°17.491 2°52.456 10.1 8 17.7 100070 48
2011-08-26 05:51 51°17.685 2°52.459 12.2 359 17.8 100070 49
2011-08-26 05:52 51°17.875 2°52.502 11.4 359 17.8 100060 49
2011-08-26 05:53 51°18.059 2°52.581 12.8 359 17.8 100060 48
2011-08-26 05:54 51°18.226 2°52.726 14.9 355 17.8 100050 49
2011-08-26 05:55 51°18.386 2°52.888 11.2 352 17.8 100050 48
2011-08-26 05:56 51°18.533 2°53.076 12.9 353 17.9 100050 50
2011-08-26 05:57 51°18.683 2°53.258 15.5 354 17.9 100060 49
2011-08-26 05:58 51°18.842 2°53.419 11.4 357 17.9 100050 48
2011-08-26 05:59 51°18.996 2°53.596 16.6 352 17.9 100050 49
2011-08-26 06:00 51°19.144 2°53.781 13.6 355 17.9 100050 48
2011-08-26 06:01 51°19.299 2°53.953 16.8 354 17.9 100050 49
2011-08-26 06:02 51°19.444 2°54.144 10.3 352 17.9 100050 48
2011-08-26 06:03 51°19.593 2°54.326 6.3 352 17.9 100050 49
2011-08-26 06:04 51°19.75 2°54.489 13.1 353 17.9 100040 48
2011-08-26 06:05 51°19.905 2°54.66 11.3 353 17.9 100050 49
2011-08-26 06:06 51°20.051 2°54.852 14 350 17.9 100040 49
2011-08-26 06:07 51°20.197 2°55.045 14.7 352 17.9 100040 49
2011-08-26 06:08 51°20.353 2°55.22 9.6 352 17.9 100040 49
2011-08-26 06:09 51°20.505 2°55.4 9.9 353 17.9 100040 49
2011-08-26 06:10 51°20.657 2°55.579 15.1 355 17.9 100040 48
2011-08-26 06:11 51°20.805 2°55.765 11.3 356 17.9 100040 47
2011-08-26 06:12 51°20.963 2°55.929 12.5 356 17.9 100030 49
2011-08-26 06:13 51°21.112 2°56.11 11.7 353 17.9 100020 48
2011-08-26 06:14 51°21.269 2°56.275 16.5 354 17.9 100030 49
2011-08-26 06:15 51°21.412 2°56.464 10.6 355 17.9 100030 49
2011-08-26 06:16 51°21.562 2°56.64 10.2 355 17.9 100030 49
2011-08-26 06:17 51°21.708 2°56.826 6.8 352 17.9 100030 49
2011-08-26 06:18 51°21.861 2°56.999 9.5 350 17.9 100010 49
2011-08-26 06:19 51°22.009 2°57.178 14.4 352 17.9 99990 49
2011-08-26 06:20 51°22.157 2°57.361 17.2 349 17.9 100000 49
2011-08-26 06:21 51°22.302 2°57.546 10.5 350 17.9 99990 48
2011-08-26 06:22 51°22.456 2°57.715 14 349 17.9 99980 49
2011-08-26 06:23 51°22.602 2°57.902 10.2 346 17.9 99970 48
2011-08-26 06:24 51°22.75 2°58.083 14.3 345 17.9 99960 49
2011-08-26 06:25 51°22.901 2°58.26 15.7 346 17.9 99960 48
2011-08-26 06:26 51°23.044 2°58.454 14.6 345 17.9 99950 49
2011-08-26 06:27 51°23.197 2°58.625 9.5 344 17.9 99960 47
2011-08-26 06:28 51°23.342 2°58.817 14.4 346 17.9 99950 49
2011-08-26 06:29 51°23.493 2°58.996 13 349 17.9 99950 48
2011-08-26 06:30 51°23.644 2°59.17 12.1 347 17.9 99940 49
2011-08-26 06:31 51°23.787 2°59.364 6.5 346 17.9 99950 48
2011-08-26 06:32 51°23.936 2°59.55 9.8 349 17.9 99960 48
2011-08-26 06:33 51°24.081 2°59.747 14.2 345 17.9 99960 48
2011-08-26 06:34 51°24.214 2°59.965 14.9 344 17.9 99970 48
2011-08-26 06:35 51°24.347 3°0.187 6.9 347 17.9 99940 48
2011-08-26 06:36 51°24.489 3°0.395 16.1 348 17.9 99940 49
2011-08-26 06:37 51°24.628 3°0.606 11.8 349 17.9 99930 49
2011-08-26 06:38 51°24.764 3°0.831 18.6 347 18 99940 49
2011-08-26 06:39 51°24.899 3°1.054 14.2 351 18 99950 48
2011-08-26 06:40 51°25.056 3°1.241 14 348 18 99950 49
2011-08-26 06:41 51°25.202 3°1.446 11.1 349 18 99950 48
2011-08-26 06:42 51°25.353 3°1.632 16.1 352 18 99940 49
2011-08-26 06:43 51°25.497 3°1.829 13.2 349 18 99930 47
2011-08-26 06:44 51°25.643 3°2.014 11.9 351 18 99930 48
2011-08-26 06:45 51°25.783 3°2.206 11.9 352 18 99940 48
2011-08-26 06:46 51°25.922 3°2.4 10.6 351 18 99950 49
2011-08-26 06:47 51°26.064 3°2.585 11.5 352 18.1 99950 48
2011-08-26 06:48 51°26.202 3°2.778 9.6 354 18.1 99940 48
2011-08-26 06:49 51°26.357 3°2.937 13.5 354 18.1 99940 48
2011-08-26 06:50 51°26.511 3°3.097 11.6 352 18.1 99940 49
2011-08-26 06:51 51°26.662 3°3.268 11 353 18.1 99950 48
2011-08-26 06:52 51°26.803 3°3.459 10.5 351 18.1 99940 49
2011-08-26 06:53 51°26.93 3°3.678 10.2 352 18.1 99950 49
2011-08-26 06:54 51°27.065 3°3.887 10.9 353 18.1 99950 49
2011-08-26 06:55 51°27.192 3°4.111 14.8 354 18.1 99950 49
2011-08-26 06:56 51°27.329 3°4.325 12.3 353 18.2 99940 48
2011-08-26 06:57 51°27.458 3°4.554 15.6 355 18.2 99950 49
2011-08-26 06:58 51°27.594 3°4.77 11.1 356 18.2 99960 48
2011-08-26 06:59 51°27.735 3°4.979 13.4 358 18.2 99970 48
2011-08-26 07:00 51°27.868 3°5.201 11.4 360 18.2 99980 48
2011-08-26 07:01 51°28.007 3°5.414 10 356 18.3 99990 49
2011-08-26 07:02 51°28.137 3°5.642 5.5 358 18.3 99990 48
2011-08-26 07:03 51°28.276 3°5.856 10.8 -999 18.3 99980 48
2011-08-26 07:04 51°28.405 3°6.087 9.6 359 18.3 100000 48
2011-08-26 07:05 51°28.545 3°6.302 8.9 358 18.4 100010 48
2011-08-26 07:06 51°28.694 3°6.496 7.4 6 18.4 100010 48
2011-08-26 07:07 51°28.856 3°6.672 9 2 18.4 100010 48
2011-08-26 07:08 51°29.019 3°6.843 8.4 6 18.4 100020 49
2011-08-26 07:09 51°29.2 3°6.951 8.1 9 18.5 100030 49
2011-08-26 07:10 51°29.383 3°7.057 7.6 11 18.5 100020 48
2011-08-26 07:11 51°29.514 3°7.122 8.1 29 18.5 100030 48
2011-08-26 07:12 51°29.579 3°7.103 6.9 42 18.5 100040 48
2011-08-26 07:13 51°29.618 3°7.072 8.5 40 18.5 100040 48
2011-08-26 07:14 51°29.621 3°7.049 9 24 18.5 100030 48
2011-08-26 07:15 51°29.612 3°7.022 9.8 29 18.5 100040 47
2011-08-26 07:16 51°29.597 3°6.996 10.6 23 18.4 100040 48
2011-08-26 07:17 51°29.58 3°6.971 7.9 25 18.4 100050 48
2011-08-26 07:18 51°29.56 3°6.951 6.3 27 18.5 100050 49
2011-08-26 07:19 51°29.546 3°6.926 6.6 21 18.6 100050 48
2011-08-26 07:20 51°29.535 3°6.898 5.4 21 18.5 100060 47
2011-08-26 07:21 51°29.523 3°6.873 4.5 28 18.5 100050 49
2011-08-26 07:22 51°29.516 3°6.843 4.3 29 18.5 100050 49
2011-08-26 07:23 51°29.513 3°6.812 6.1 23 18.5 100050 49
2011-08-26 07:24 51°29.501 3°6.792 6.4 24 18.5 100050 47
2011-08-26 07:25 51°29.47 3°6.801 6 22 18.5 100040 48
2011-08-26 07:26 51°29.497 3°6.783 10.1 22 18.5 100050 48
2011-08-26 07:27 51°29.515 3°6.839 10.2 359 18.3 100030 48
2011-08-26 07:28 51°29.517 3°6.907 9.3 1 18.3 100030 47
2011-08-26 07:29 51°29.532 3°6.958 9.9 20 18.3 100030 48
2011-08-26 07:30 51°29.536 3°6.951 9.5 26 18.2 100040 48
2011-08-26 07:31 51°29.536 3°6.932 10.7 27 18.2 100030 46
2011-08-26 07:32 51°29.535 3°6.911 9.8 28 18.1 100020 47
2011-08-26 07:33 51°29.535 3°6.893 10.2 28 18.1 100020 48
2011-08-26 07:34 51°29.533 3°6.873 8.2 22 18.1 100010 48
2011-08-26 07:35 51°29.532 3°6.852 9.5 22 18.1 100010 48
2011-08-26 07:36 51°29.53 3°6.829 10.6 24 18.1 99990 49
2011-08-26 07:37 51°29.526 3°6.804 10.3 28 18 99980 48
2011-08-26 07:38 51°29.524 3°6.777 11.4 25 18 99980 47
2011-08-26 07:39 51°29.52 3°6.749 10.9 29 18 99980 47
2011-08-26 07:40 51°29.517 3°6.721 12.1 28 18 99980 48
2011-08-26 07:41 51°29.514 3°6.694 8.7 27 18 99980 48
2011-08-26 07:42 51°29.515 3°6.673 10.9 26 18 99980 48
2011-08-26 07:43 51°29.518 3°6.656 11.1 25 18 99980 48
2011-08-26 07:44 51°29.523 3°6.644 10 23 18 99980 48
2011-08-26 07:45 51°29.527 3°6.636 10.9 20 18 99980 48
2011-08-26 07:46 51°29.531 3°6.629 9.8 18 17.9 99980 48
2011-08-26 07:47 51°29.534 3°6.622 9.6 13 18 99980 47
2011-08-26 07:48 51°29.541 3°6.679 10 353 18 99970 48
2011-08-26 07:49 51°29.534 3°6.753 10 350 17.9 99960 49
2011-08-26 07:50 51°29.528 3°6.802 10 352 17.9 99960 49
2011-08-26 07:51 51°29.525 3°6.812 9.2 1 17.9 99960 48
2011-08-26 07:52 51°29.525 3°6.795 10.3 20 17.9 99950 48
2011-08-26 07:53 51°29.525 3°6.778 8.8 26 17.9 99950 47
2011-08-26 07:54 51°29.562 3°6.758 5.1 21 17.9 99960 49
2011-08-26 07:55 51°29.567 3°6.666 7.4 264 17.9 99950 46
2011-08-26 07:56 51°29.543 3°6.602 10.9 250 17.9 99940 47
2011-08-26 07:57 51°29.482 3°6.588 11.7 328 18 99930 49
2011-08-26 07:58 51°29.459 3°6.681 11.3 357 17.9 99930 48
2011-08-26 07:59 51°29.472 3°6.755 12.5 1 17.9 99930 48
2011-08-26 08:00 51°29.477 3°6.767 8.4 3 17.9 99930 48
2011-08-26 08:01 51°29.481 3°6.759 13.3 9 18 99930 49
2011-08-26 08:02 51°29.485 3°6.741 12.7 19 18 99930 48
2011-08-26 08:03 51°29.499 3°6.741 13.9 14 17.9 99910 46
2011-08-26 08:04 51°29.507 3°6.734 12.7 16 17.9 99920 48
2011-08-26 08:05 51°29.507 3°6.71 12.4 30 18 99940 48
2011-08-26 08:06 51°29.505 3°6.685 11.8 32 18 99940 48
2011-08-26 08:07 51°29.508 3°6.663 13.4 30 17.9 99930 48
2011-08-26 08:08 51°29.524 3°6.669 15.7 13 17.9 99930 48
2011-08-26 08:09 51°29.539 3°6.686 6.2 6 17.9 99900 47
2011-08-26 08:10 51°29.548 3°6.699 13.1 359 17.9 99880 48
2011-08-26 08:11 51°29.556 3°6.697 6 4 17.9 99850 47
2011-08-26 08:12 51°29.564 3°6.684 19.1 9 17.9 99820 48
2011-08-26 08:13 51°29.582 3°6.72 12.4 351 17.9 99820 48
2011-08-26 08:14 51°29.588 3°6.751 13 354 17.9 99830 48
2011-08-26 08:15 51°29.595 3°6.772 12.2 351 17.9 99820 48
2011-08-26 08:16 51°29.603 3°6.78 11.9 356 17.9 99820 48
2011-08-26 08:17 51°29.612 3°6.776 14.1 7 17.9 99810 47
2011-08-26 08:18 51°29.621 3°6.76 16.7 22 17.9 99800 48
2011-08-26 08:19 51°29.62 3°6.736 14 36 17.9 99810 46
2011-08-26 08:20 51°29.654 3°6.682 12 26 17.9 99850 49
2011-08-26 08:21 51°29.633 3°6.595 13.3 20 17.9 99860 48
2011-08-26 08:22 51°29.584 3°6.574 13.1 318 17.9 99800 48
2011-08-26 08:23 51°29.549 3°6.597 17.6 332 17.9 99830 48
2011-08-26 08:24 51°29.542 3°6.618 15.1 351 17.8 99850 48
2011-08-26 08:25 51°29.553 3°6.648 13.8 354 17.9 99820 48
2011-08-26 08:26 51°29.562 3°6.68 14.3 352 18 99840 47
2011-08-26 08:27 51°29.572 3°6.699 10.1 354 18 99840 46
2011-08-26 08:28 51°29.584 3°6.715 12.6 -999 18 99830 47
2011-08-26 08:29 51°29.598 3°6.725 7 9 18 99850 47
2011-08-26 08:30 51°29.611 3°6.726 12.2 16 18.1 99860 47
2011-08-26 08:31 51°29.627 3°6.776 18.3 357 18 99870 47
2011-08-26 08:32 51°29.634 3°6.821 10.4 357 18 99880 47
2011-08-26 08:33 51°29.644 3°6.844 10.9 359 18.1 99890 47
2011-08-26 08:34 51°29.657 3°6.855 10.5 13 18.1 99900 46
2011-08-26 08:35 51°29.669 3°6.855 12.7 22 18.2 99900 45
2011-08-26 08:36 51°29.679 3°6.849 11.6 28 18.2 99910 46
2011-08-26 08:37 51°29.689 3°6.841 11.4 37 18.1 99910 47
2011-08-26 08:38 51°29.699 3°6.835 11.9 30 18.1 99910 47
2011-08-26 08:39 51°29.71 3°6.831 11.3 30 18.1 99910 47
2011-08-26 08:40 51°29.72 3°6.825 14.5 28 18.2 99920 46
2011-08-26 08:41 51°29.734 3°6.819 10.4 35 18.2 99920 47
2011-08-26 08:42 51°29.792 3°6.791 10.9 268 18.2 99950 47
2011-08-26 08:43 51°29.778 3°6.698 11.2 25 18.2 99920 45
2011-08-26 08:44 51°29.735 3°6.678 11.2 328 18.2 99920 46
2011-08-26 08:45 51°29.711 3°6.689 13.5 325 18.2 99940 46
2011-08-26 08:46 51°29.705 3°6.694 13.2 329 18.2 99940 47
2011-08-26 08:47 51°29.706 3°6.69 13.9 325 18.2 99960 46
2011-08-26 08:48 51°29.692 3°6.7 14.2 337 18.2 99950 46
2011-08-26 08:49 51°29.688 3°6.719 6 343 18.2 99950 47
2011-08-26 08:50 51°29.686 3°6.75 14.4 345 18.1 99960 46
2011-08-26 08:51 51°29.679 3°6.788 6.2 341 18.1 99960 44
2011-08-26 08:52 51°29.681 3°6.809 12.5 344 18.2 99970 47
2011-08-26 08:53 51°29.694 3°6.825 13.7 349 18.2 99960 47
2011-08-26 08:54 51°29.699 3°6.86 12.2 346 18.2 99950 46
2011-08-26 08:55 51°29.703 3°6.887 10.7 338 18.1 99960 46
2011-08-26 08:56 51°29.714 3°6.905 13.7 340 18.1 99960 46
2011-08-26 08:57 51°29.721 3°6.928 5.7 340 18.1 99960 46
2011-08-26 08:58 51°29.725 3°6.951 12.2 334 18.1 99970 46
2011-08-26 08:59 51°29.733 3°6.961 9.4 324 18.1 99960 45
2011-08-26 09:00 51°29.754 3°6.963 10.9 25 18.1 99950 47
2011-08-26 09:01 51°29.772 3°6.966 14.4 239 18.1 99940 47
2011-08-26 09:02 51°29.743 3°6.945 6.9 319 18.1 99930 46
2011-08-26 09:03 51°29.691 3°6.941 9.6 317 18.1 99950 46
2011-08-26 09:04 51°29.672 3°6.937 11 316 18.1 99960 46
2011-08-26 09:05 51°29.673 3°6.933 4.4 21 18.1 99960 46
2011-08-26 09:06 51°29.682 3°6.929 11.9 25 18.1 99960 46
2011-08-26 09:07 51°29.676 3°6.919 10.3 315 18.1 99950 45
2011-08-26 09:08 51°29.678 3°6.917 14.5 232 18 99960 46
2011-08-26 09:09 51°29.684 3°6.91 14 37 18 99950 47
2011-08-26 09:10 51°29.68 3°6.904 5.7 317 18.1 99960 47
2011-08-26 09:11 51°29.676 3°6.907 10 321 18.1 99990 46
2011-08-26 09:12 51°29.689 3°6.912 11.7 39 18.1 99980 46
2011-08-26 09:13 51°29.698 3°6.906 9.9 33 18.1 99980 46
2011-08-26 09:14 51°29.692 3°6.9 10 39 18.1 99990 46
2011-08-26 09:15 51°29.688 3°6.903 9.9 321 18.1 99990 45
2011-08-26 09:16 51°29.685 3°6.914 8.5 336 18.2 100010 46
2011-08-26 09:17 51°29.69 3°6.927 10.7 338 18.2 100010 47
2011-08-26 09:18 51°29.704 3°6.937 7.1 325 18.2 100010 46
2011-08-26 09:19 51°29.723 3°6.949 7 323 18.2 100010 47
2011-08-26 09:20 51°29.748 3°6.964 7.4 19 18.2 100000 46
2011-08-26 09:21 51°29.773 3°6.986 7.9 245 18.2 100000 47
2011-08-26 09:22 51°29.795 3°7.009 10.6 258 18.2 100020 47
2011-08-26 09:23 51°29.814 3°7.029 9.9 257 18.3 100030 45
2011-08-26 09:24 51°29.823 3°7.002 9.1 35 18.3 100020 47
2011-08-26 09:25 51°29.772 3°6.989 9.3 336 18.3 100040 46
2011-08-26 09:26 51°29.719 3°7.017 11.1 337 18.2 100050 46
2011-08-26 09:27 51°29.695 3°7.036 10.6 330 18.2 100050 47
2011-08-26 09:28 51°29.688 3°7.055 10.8 339 18.2 100050 46
2011-08-26 09:29 51°29.699 3°7.071 12.8 335 18.2 100050 46
2011-08-26 09:30 51°29.721 3°7.09 10.7 321 18.2 100040 47
2011-08-26 09:31 51°29.745 3°7.113 8.2 33 18.2 100030 44
2011-08-26 09:32 51°29.756 3°7.105 11.6 27 18.2 100040 46
2011-08-26 09:33 51°29.754 3°7.095 5.5 322 18.2 100050 46
2011-08-26 09:34 51°29.753 3°7.1 8 332 18.2 100060 46
2011-08-26 09:35 51°29.753 3°7.116 6.3 342 18.2 100070 46
2011-08-26 09:36 51°29.752 3°7.137 8.3 335 18.1 100070 47
2011-08-26 09:37 51°29.749 3°7.155 11 336 18.2 100080 46
2011-08-26 09:38 51°29.746 3°7.172 11.1 332 18.1 100070 46
2011-08-26 09:39 51°29.745 3°7.187 9.5 330 18.1 100070 45
2011-08-26 09:40 51°29.749 3°7.204 7.6 335 18.1 100070 46
2011-08-26 09:41 51°29.755 3°7.226 9.8 338 18.2 100070 47
2011-08-26 09:42 51°29.766 3°7.247 10.4 343 18.1 100070 46
2011-08-26 09:43 51°29.783 3°7.274 8.5 346 18 100060 46
2011-08-26 09:44 51°29.798 3°7.306 8.5 357 18.1 100050 47
2011-08-26 09:45 51°29.802 3°7.348 9.6 346 18 100040 46
2011-08-26 09:46 51°29.789 3°7.381 12.9 330 18 100050 46
2011-08-26 09:47 51°29.782 3°7.38 10.9 316 18 100060 46
2011-08-26 09:48 51°29.792 3°7.377 9.5 31 18 100070 47
2011-08-26 09:49 51°29.806 3°7.377 6.2 35 18.1 100060 46
2011-08-26 09:50 51°29.812 3°7.335 9.6 37 18 100050 46
2011-08-26 09:51 51°29.811 3°7.273 8.3 36 18.1 100050 47
2011-08-26 09:52 51°29.814 3°7.227 5.5 34 18.1 100050 47
2011-08-26 09:53 51°29.817 3°7.196 11.3 322 18.1 100060 46
2011-08-26 09:54 51°29.786 3°7.212 5 359 18.1 100070 47
2011-08-26 09:55 51°29.782 3°7.307 11.2 20 18.1 100070 45
2011-08-26 09:56 51°29.794 3°7.4 8.8 21 18.1 100070 47
2011-08-26 09:57 51°29.806 3°7.482 13.6 16 18.1 100070 46
2011-08-26 09:58 51°29.787 3°7.56 5.9 346 18 100070 46
2011-08-26 09:59 51°29.746 3°7.548 3.3 327 18.1 100080 47
2011-08-26 10:00 51°29.655 3°7.476 19.7 328 18.1 100090 46
2011-08-26 10:01 51°29.56 3°7.376 7 325 18.2 100090 46
2011-08-26 10:02 51°29.483 3°7.246 3.4 320 18.2 100080 46
2011-08-26 10:03 51°29.425 3°7.122 7.2 325 18.1 100060 44
2011-08-26 10:04 51°29.387 3°7.092 5.5 330 18.2 100100 46
2011-08-26 10:05 51°29.39 3°7.107 13.9 329 18.2 100090 46
2011-08-26 10:06 51°29.413 3°7.134 10.3 317 18.2 100090 46
2011-08-26 10:07 51°29.433 3°7.158 6.8 37 18.1 100060 45
2011-08-26 10:08 51°29.437 3°7.155 3.7 321 18.2 100070 46
2011-08-26 10:09 51°29.438 3°7.155 17.4 325 18.2 100090 46
2011-08-26 10:10 51°29.437 3°7.159 12.8 323 18.2 100080 46
2011-08-26 10:11 51°29.436 3°7.16 11 323 18.2 100090 44
2011-08-26 10:12 51°29.437 3°7.16 13.6 323 18.2 100070 46
2011-08-26 10:13 51°29.436 3°7.162 13.3 325 18.2 100070 46
2011-08-26 10:14 51°29.436 3°7.161 14.7 320 18.2 100090 46
2011-08-26 10:15 51°29.437 3°7.159 5.8 324 18.2 100090 46
2011-08-26 10:16 51°29.436 3°7.159 15.3 324 18.2 100090 45
2011-08-26 10:17 51°29.437 3°7.158 16.6 323 18.2 100090 46
2011-08-26 10:18 51°29.436 3°7.159 14.4 327 18.2 100090 46
2011-08-26 10:19 51°29.435 3°7.162 4.4 327 18.2 100080 44
2011-08-26 10:20 51°29.434 3°7.162 13.4 325 18.2 100090 45
2011-08-26 10:21 51°29.435 3°7.16 7.3 318 18.2 100090 45
2011-08-26 10:22 51°29.437 3°7.156 3.3 319 18.2 100070 45
2011-08-26 10:23 51°29.438 3°7.154 15.4 320 18.2 100060 46
2011-08-26 10:24 51°29.438 3°7.15 9.8 318 18.2 100060 46
2011-08-26 10:25 51°29.438 3°7.153 12.8 323 18.2 100070 45
2011-08-26 10:26 51°29.437 3°7.157 15 323 18.3 100080 45
2011-08-26 10:27 51°29.435 3°7.159 3.8 322 18.3 100070 44
2011-08-26 10:28 51°29.436 3°7.157 6.6 321 18.2 100070 45
2011-08-26 10:29 51°29.437 3°7.157 17.5 321 18.3 100070 45
2011-08-26 10:30 51°29.439 3°7.155 10.9 322 18.3 100080 45
2011-08-26 10:31 51°29.439 3°7.154 9.2 320 18.3 100070 45
2011-08-26 10:32 51°29.437 3°7.157 12.7 325 18.3 100080 45
2011-08-26 10:33 51°29.435 3°7.164 3.9 327 18.3 100080 45
2011-08-26 10:34 51°29.433 3°7.167 11.4 323 18.3 100070 45
2011-08-26 10:35 51°29.435 3°7.164 6.7 320 18.3 100060 43
2011-08-26 10:36 51°29.438 3°7.159 6.4 323 18.3 100060 45
2011-08-26 10:37 51°29.439 3°7.156 14.6 321 18.3 100070 45
2011-08-26 10:38 51°29.44 3°7.153 4.2 323 18.3 100070 45
2011-08-26 10:39 51°29.438 3°7.156 9.7 323 18.3 100070 45
2011-08-26 10:40 51°29.437 3°7.159 12.8 325 18.4 100070 45
2011-08-26 10:41 51°29.436 3°7.159 11.3 323 18.3 100060 45
2011-08-26 10:42 51°29.436 3°7.161 6.1 328 18.4 100060 45
2011-08-26 10:43 51°29.435 3°7.163 10.8 324 18.3 100070 43
2011-08-26 10:44 51°29.434 3°7.163 11.6 325 18.4 100060 44
2011-08-26 10:45 51°29.434 3°7.164 15.8 321 18.4 100070 46
2011-08-26 10:46 51°29.435 3°7.162 13.4 321 18.4 100050 45
2011-08-26 10:47 51°29.436 3°7.158 11.5 322 18.4 100040 45
2011-08-26 10:48 51°29.438 3°7.156 3.4 326 18.4 100050 44
2011-08-26 10:49 51°29.438 3°7.158 4.4 325 18.4 100040 45
2011-08-26 10:50 51°29.438 3°7.157 6.1 321 18.3 100060 45
2011-08-26 10:51 51°29.438 3°7.154 15.7 326 18.4 100050 44
2011-08-26 10:52 51°29.438 3°7.155 10.7 326 18.4 100060 45
2011-08-26 10:53 51°29.436 3°7.159 14.4 328 18.4 100050 45
2011-08-26 10:54 51°29.433 3°7.164 11.7 331 18.5 100060 46
2011-08-26 10:55 51°29.433 3°7.166 6.2 328 18.4 100040 45
2011-08-26 10:56 51°29.433 3°7.166 8.6 324 18.4 100040 45
2011-08-26 10:57 51°29.432 3°7.166 9.7 326 18.5 100060 45
2011-08-26 10:58 51°29.433 3°7.163 11.5 324 18.5 100050 45
2011-08-26 10:59 51°29.435 3°7.16 12.9 325 18.5 100050 44
2011-08-26 11:00 51°29.435 3°7.161 5.8 328 18.5 100060 45
2011-08-26 11:01 51°29.435 3°7.162 16.5 329 18.5 100060 45
2011-08-26 11:02 51°29.433 3°7.166 15 330 18.5 100070 45
2011-08-26 11:03 51°29.432 3°7.167 4.5 328 18.5 100070 45
2011-08-26 11:04 51°29.432 3°7.166 9.9 327 18.5 100070 45
2011-08-26 11:05 51°29.433 3°7.164 8.6 325 18.5 100060 45
2011-08-26 11:06 51°29.436 3°7.161 4.4 323 18.5 100050 45
2011-08-26 11:07 51°29.436 3°7.158 12 329 18.4 100060 43
2011-08-26 11:08 51°29.435 3°7.161 4.6 329 18.4 100060 44
2011-08-26 11:09 51°29.429 3°7.159 10.5 329 18.4 100070 45
2011-08-26 11:10 51°29.424 3°7.154 13.3 328 18.5 100070 44
2011-08-26 11:11 51°29.419 3°7.147 13.1 322 18.5 100080 45
2011-08-26 11:12 51°29.415 3°7.137 10.7 322 18.4 100070 44
2011-08-26 11:13 51°29.41 3°7.124 6.6 324 18.4 100080 45
2011-08-26 11:14 51°29.413 3°7.128 2.6 326 18.4 100070 44
2011-08-26 11:15 51°29.437 3°7.145 12 20 18.4 100080 44
2011-08-26 11:16 51°29.46 3°7.114 13.1 22 18.3 100050 45
2011-08-26 11:17 51°29.462 3°6.936 10.7 25 18.3 100020 44
2011-08-26 11:18 51°29.515 3°6.728 7.8 254 18.3 100040 45
2011-08-26 11:19 51°29.649 3°6.738 8.8 27 18.3 100120 44
2011-08-26 11:20 51°29.697 3°6.855 12.5 28 18.3 100070 45
2011-08-26 11:21 51°29.718 3°6.939 6.1 24 18.2 100070 45
2011-08-26 11:22 51°29.739 3°7.001 12 19 18.2 100070 45
2011-08-26 11:23 51°29.762 3°7.053 13.4 20 18.2 100070 44
2011-08-26 11:24 51°29.774 3°7.117 6.4 360 18 100060 45
2011-08-26 11:25 51°29.731 3°7.128 17 330 18 100100 45
2011-08-26 11:26 51°29.667 3°7.079 6.8 332 18.1 100090 45
2011-08-26 11:27 51°29.627 3°7.052 12.9 325 18.1 100100 45
2011-08-26 11:28 51°29.621 3°7.046 5.8 332 18.1 100120 45
2011-08-26 11:29 51°29.619 3°7.058 13.2 336 18 100140 45
2011-08-26 11:30 51°29.601 3°7.065 5.9 334 18.1 100150 45
2011-08-26 11:31 51°29.584 3°7.078 4.4 345 18.1 100140 44
2011-08-26 11:32 51°29.592 3°7.12 14.2 355 18.1 100120 45
2011-08-26 11:33 51°29.619 3°7.166 6.7 15 18 100110 45
2011-08-26 11:34 51°29.649 3°7.207 14.5 25 17.9 100090 45
2011-08-26 11:35 51°29.679 3°7.258 14 25 18 100100 45
2011-08-26 11:36 51°29.693 3°7.334 13.2 21 18 100110 45
2011-08-26 11:37 51°29.708 3°7.394 15.7 18 18 100090 45
2011-08-26 11:38 51°29.729 3°7.443 12.5 17 18 100090 45
2011-08-26 11:39 51°29.754 3°7.489 7 19 17.9 100090 43
2011-08-26 11:40 51°29.781 3°7.535 4.9 19 17.9 100100 44
2011-08-26 11:41 51°29.807 3°7.583 12 21 17.9 100090 45
2011-08-26 11:42 51°29.834 3°7.626 12.1 17 18 100100 45
2011-08-26 11:43 51°29.834 3°7.691 16.8 356 18 100090 45
2011-08-26 11:44 51°29.794 3°7.697 17.6 330 17.9 100130 45
2011-08-26 11:45 51°29.691 3°7.559 4.8 329 17.9 100110 45
2011-08-26 11:46 51°29.557 3°7.363 27.4 326 18 100110 45
2011-08-26 11:47 51°29.429 3°7.167 2.6 327 18 100110 44
2011-08-26 11:48 51°29.295 3°6.976 2.2 330 18 100120 45
2011-08-26 11:49 51°29.156 3°6.794 22.6 326 18 100100 45
2011-08-26 11:50 51°29.016 3°6.61 8.7 328 18 100130 45
2011-08-26 11:51 51°28.876 3°6.425 6.1 330 18.1 100100 45
2011-08-26 11:52 51°28.737 3°6.239 18.3 328 18 100120 45
2011-08-26 11:53 51°28.596 3°6.054 8.3 329 18.1 100110 45
2011-08-26 11:54 51°28.459 3°5.861 8.6 327 18.1 100130 45
2011-08-26 11:55 51°28.316 3°5.684 5.5 327 18.1 100130 43
2011-08-26 11:56 51°28.177 3°5.492 23.6 326 18.1 100140 45
2011-08-26 11:57 51°28.035 3°5.319 5 328 18 100160 45
2011-08-26 11:58 51°27.893 3°5.136 5.3 325 18 100130 45
2011-08-26 11:59 51°27.756 3°4.945 4.4 329 18 100130 45
2011-08-26 12:00 51°27.609 3°4.77 6.5 329 18 100150 45
2011-08-26 12:01 51°27.466 3°4.589 9.2 329 17.9 100130 45
2011-08-26 12:02 51°27.32 3°4.41 5.7 326 18 100150 46
2011-08-26 12:03 51°27.173 3°4.228 8.8 327 18 100150 44
2011-08-26 12:04 51°27.033 3°4.045 18 329 18 100130 45
2011-08-26 12:05 51°26.886 3°3.873 24.2 329 18 100160 45
2011-08-26 12:06 51°26.741 3°3.695 8.8 328 17.9 100150 45
2011-08-26 12:07 51°26.598 3°3.51 6.1 331 17.9 100160 45
2011-08-26 12:08 51°26.454 3°3.341 16.6 330 17.9 100160 45
2011-08-26 12:09 51°26.316 3°3.157 9.2 328 17.9 100160 45
2011-08-26 12:10 51°26.174 3°2.975 8.9 332 18 100170 45
2011-08-26 12:11 51°26.033 3°2.793 4.6 332 17.9 100160 44
2011-08-26 12:12 51°25.885 3°2.621 10.1 329 17.8 100170 46
2011-08-26 12:13 51°25.744 3°2.451 4.4 329 17.8 100170 45
2011-08-26 12:14 51°25.605 3°2.274 6.1 332 17.8 100170 45
2011-08-26 12:15 51°25.459 3°2.103 8.6 328 17.8 100180 45
2011-08-26 12:16 51°25.318 3°1.921 6.2 332 17.8 100180 46
2011-08-26 12:17 51°25.17 3°1.746 5.9 330 17.8 100190 46
2011-08-26 12:18 51°25.035 3°1.545 21.2 327 17.8 100180 46
2011-08-26 12:19 51°24.906 3°1.339 5.8 327 17.8 100170 44
2011-08-26 12:20 51°24.768 3°1.145 16.8 325 17.8 100170 46
2011-08-26 12:21 51°24.632 3°0.941 5.1 327 17.8 100170 46
2011-08-26 12:22 51°24.5 3°0.735 8.5 328 17.8 100190 45
2011-08-26 12:23 51°24.359 3°0.539 16.4 329 17.8 100200 46
2011-08-26 12:24 51°24.226 3°0.342 6 328 17.8 100200 46
2011-08-26 12:25 51°24.092 3°0.141 11.9 329 17.8 100210 46
2011-08-26 12:26 51°23.955 2°59.945 11.6 328 17.8 100210 45
2011-08-26 12:27 51°23.824 2°59.741 4.7 330 17.8 100210 44
2011-08-26 12:28 51°23.687 2°59.543 8.3 329 17.7 100200 45
2011-08-26 12:29 51°23.549 2°59.342 8.2 328 17.8 100210 46
2011-08-26 12:30 51°23.409 2°59.149 16.6 331 17.8 100200 45
2011-08-26 12:31 51°23.273 2°58.948 7.8 328 17.8 100200 46
2011-08-26 12:32 51°23.14 2°58.742 4.8 330 17.9 100200 45
2011-08-26 12:33 51°23.001 2°58.545 16.4 331 17.9 100210 46
2011-08-26 12:34 51°22.848 2°58.366 8.2 330 17.9 100200 46
2011-08-26 12:35 51°22.711 2°58.175 7.9 333 17.8 100220 44
2011-08-26 12:36 51°22.565 2°57.988 7.7 329 17.8 100200 46
2011-08-26 12:37 51°22.421 2°57.795 13.8 331 17.8 100210 46
2011-08-26 12:38 51°22.28 2°57.597 7.3 329 17.8 100200 46
2011-08-26 12:39 51°22.133 2°57.412 16 332 17.8 100200 46
2011-08-26 12:40 51°21.992 2°57.213 14.5 330 17.8 100220 46
2011-08-26 12:41 51°21.851 2°57.013 8.1 333 17.8 100210 46
2011-08-26 12:42 51°21.703 2°56.827 7.5 333 17.8 100200 46
2011-08-26 12:43 51°21.563 2°56.619 13.5 336 17.8 100220 44
2011-08-26 12:44 51°21.415 2°56.427 16.8 340 17.9 100210 46
2011-08-26 12:45 51°21.267 2°56.232 6.4 341 17.8 100210 45
2011-08-26 12:46 51°21.123 2°56.023 12.9 342 17.6 100220 46
2011-08-26 12:47 51°20.969 2°55.84 16.3 347 17.4 100200 46
2011-08-26 12:48 51°20.818 2°55.66 14.4 343 17.4 100210 45
2011-08-26 12:49 51°20.666 2°55.471 10.9 342 17.3 100220 46
2011-08-26 12:50 51°20.51 2°55.29 6.2 346 17.2 100220 45
2011-08-26 12:51 51°20.357 2°55.1 7 343 17.2 100230 45
2011-08-26 12:52 51°20.203 2°54.912 6.6 343 17.2 100220 47
2011-08-26 12:53 51°20.047 2°54.73 13 348 17.2 100220 46
2011-08-26 12:54 51°19.895 2°54.537 16.1 348 17 100210 46
2011-08-26 12:55 51°19.737 2°54.356 12.9 350 17 100210 46
2011-08-26 12:56 51°19.585 2°54.163 15.6 347 17 100220 46
2011-08-26 12:57 51°19.428 2°53.98 6.6 348 17 100210 47
2011-08-26 12:58 51°19.268 2°53.801 6.6 349 17 100220 46
2011-08-26 12:59 51°19.119 2°53.601 17.5 349 16.9 100220 45
2011-08-26 13:00 51°18.959 2°53.42 10.9 345 16.9 100220 46
2011-08-26 13:01 51°18.805 2°53.231 14.3 346 16.9 100240 46
2011-08-26 13:02 51°18.65 2°53.04 10.8 346 16.8 100230 46
2011-08-26 13:03 51°18.486 2°52.872 14 351 16.8 100220 46
2011-08-26 13:04 51°18.312 2°52.722 11.2 353 16.8 100220 46
2011-08-26 13:05 51°18.131 2°52.603 11.7 355 16.8 100230 46
2011-08-26 13:06 51°17.942 2°52.518 12.7 357 16.8 100230 46
2011-08-26 13:07 51°17.744 2°52.493 7.9 357 16.8 100230 44
2011-08-26 13:08 51°17.545 2°52.464 11.9 358 16.7 100240 45
2011-08-26 13:09 51°17.346 2°52.471 7.9 359 16.8 100250 47
2011-08-26 13:10 51°17.151 2°52.55 5.8 11 16.8 100250 45
2011-08-26 13:11 51°16.965 2°52.682 7.6 11 16.8 100250 46
2011-08-26 13:12 51°16.779 2°52.811 6.7 8 16.8 100260 45
2011-08-26 13:13 51°16.592 2°52.944 4.8 4 16.8 100270 47
2011-08-26 13:14 51°16.41 2°53.091 7.9 9 16.7 100280 46
2011-08-26 13:15 51°16.221 2°53.227 6.8 9 16.7 100270 45
2011-08-26 13:16 51°16.034 2°53.359 5.8 8 16.8 100270 46
2011-08-26 13:17 51°15.85 2°53.508 5.7 8 16.8 100280 46
2011-08-26 13:18 51°15.682 2°53.704 5.2 6 16.9 100290 47
2011-08-26 13:19 51°15.516 2°53.902 4.8 7 16.8 100290 46
2011-08-26 13:20 51°15.353 2°54.094 4.2 1 16.8 100290 46
2011-08-26 13:21 51°15.195 2°54.278 5.2 8 16.8 100290 46
2011-08-26 13:22 51°15.033 2°54.471 0.2 8 16.8 100300 45
2011-08-26 13:23 51°14.888 2°54.65 -999 15 16.9 100300 44
2011-08-26 13:24 51°14.738 2°54.826 5 12 16.9 100300 45
2011-08-26 13:25 51°14.583 2°54.999 5.2 8 16.9 100290 45
2011-08-26 13:26 51°14.425 2°55.152 5.2 4 16.9 100300 45
2011-08-26 13:27 51°14.281 2°55.292 4 8 16.9 100310 45
2011-08-26 13:28 51°14.156 2°55.401 4 349 17 100310 45
2011-08-26 13:29 51°14.027 2°55.494 -999 356 17 100310 46
2011-08-26 13:30 51°13.93 2°55.559 0.3 356 17 100310 46
2011-08-26 13:31 51°13.837 2°55.625 -999 350 17 100310 44
2011-08-26 13:32 51°13.756 2°55.713 -999 16 17 100310 45
2011-08-26 13:33 51°13.698 2°55.819 -999 28 17.1 100300 45
2011-08-26 13:34 51°13.662 2°55.912 -999 32 17.1 100300 45
2011-08-26 13:35 51°13.642 2°55.989 -999 36 17.1 100310 45